DNO511 KHDN-KGJT

Flight info

Callsign DNO511
Flight time N/A
Altitude 14000
Route CHE V220 EKR V26 JNC
Aircraft C208/L-SDF/C

Departure

Time 2026-05-06 18:38
Airport Yampa Valley Airport (KHDN)

Arrival

Time N/A
Airport Grand Junction Regional Airport (KGJT)
Time Latitude Longitude Altitude Speed Heading
2026-05-06 18:24 40.48358 -107.21820 6595 ft 0 kts 21°
2026-05-06 18:33 40.48349 -107.21817 6595 ft 6 kts 227°
2026-05-06 18:33 40.48297 -107.21873 6595 ft 10 kts 195°
2026-05-06 18:33 40.48269 -107.21846 6596 ft 10 kts 114°
2026-05-06 18:33 40.48233 -107.21738 6599 ft 13 kts 114°
2026-05-06 18:34 40.48187 -107.21605 6597 ft 18 kts 114°
2026-05-06 18:34 40.48145 -107.21482 6601 ft 16 kts 113°
2026-05-06 18:34 40.48103 -107.21351 6599 ft 18 kts 113°
2026-05-06 18:34 40.48078 -107.21314 6601 ft 0 kts 193°
2026-05-06 18:35 40.48068 -107.21318 6601 ft 6 kts 200°
2026-05-06 18:35 40.48006 -107.21357 6601 ft 12 kts 207°
2026-05-06 18:35 40.47995 -107.21400 6600 ft 0 kts 288°
2026-05-06 18:36 40.48010 -107.21447 6601 ft 20 kts 294°
2026-05-06 18:36 40.48113 -107.21753 6596 ft 53 kts 293°
2026-05-06 18:37 40.48300 -107.22312 6599 ft 79 kts 294°
2026-05-06 18:37 40.48562 -107.22979 6657 ft 90 kts 296°
2026-05-06 18:37 40.48848 -107.23749 6762 ft 96 kts 292°
2026-05-06 18:37 40.49103 -107.24587 6910 ft 101 kts 287°
2026-05-06 18:38 40.49323 -107.25502 6989 ft 109 kts 282°
2026-05-06 18:38 40.49476 -107.26515 7091 ft 118 kts 284°
2026-05-06 18:38 40.49784 -107.27552 7201 ft 125 kts 291°
2026-05-06 18:38 40.50158 -107.28608 7303 ft 132 kts 308°
2026-05-06 18:39 40.50964 -107.29216 7418 ft 137 kts 332°
2026-05-06 18:39 40.51614 -107.30098 7505 ft 138 kts 287°
2026-05-06 18:39 40.51483 -107.31317 7608 ft 140 kts 237°
2026-05-06 18:40 40.50138 -107.33135 7964 ft 139 kts 227°
2026-05-06 18:40 40.49466 -107.34050 8116 ft 139 kts 228°
2026-05-06 18:40 40.48800 -107.34965 8266 ft 139 kts 228°
2026-05-06 18:40 40.48131 -107.35886 8418 ft 139 kts 228°
2026-05-06 18:41 40.47465 -107.36807 8569 ft 140 kts 228°
2026-05-06 18:41 40.46791 -107.37737 8726 ft 141 kts 228°
2026-05-06 18:41 40.46115 -107.38670 8887 ft 140 kts 228°
2026-05-06 18:41 40.45448 -107.39591 9062 ft 138 kts 228°
2026-05-06 18:42 40.44784 -107.40503 9229 ft 138 kts 230°
2026-05-06 18:42 40.44114 -107.41430 9356 ft 143 kts 229°
2026-05-06 18:42 40.43414 -107.42399 9435 ft 148 kts 230°
2026-05-06 18:42 40.42693 -107.43399 9531 ft 155 kts 230°
2026-05-06 18:43 40.41950 -107.44421 9623 ft 158 kts 229°
2026-05-06 18:43 40.41185 -107.45473 9715 ft 160 kts 229°
2026-05-06 18:43 40.40416 -107.46530 9794 ft 160 kts 230°
2026-05-06 18:43 40.39648 -107.47588 9887 ft 161 kts 229°
2026-05-06 18:44 40.38874 -107.48656 9984 ft 161 kts 230°
2026-05-06 18:44 40.38101 -107.49716 10087 ft 161 kts 230°
2026-05-06 18:44 40.37325 -107.50781 10188 ft 162 kts 230°
2026-05-06 18:44 40.36548 -107.51852 10284 ft 161 kts 229°
2026-05-06 18:45 40.35771 -107.52917 10377 ft 161 kts 230°
2026-05-06 18:45 40.34999 -107.53973 10467 ft 159 kts 229°
2026-05-06 18:45 40.34245 -107.55004 10560 ft 158 kts 230°
2026-05-06 18:45 40.33485 -107.56049 10653 ft 158 kts 230°
2026-05-06 18:46 40.32726 -107.57092 10749 ft 157 kts 230°
2026-05-06 18:46 40.31973 -107.58126 10832 ft 156 kts 230°
2026-05-06 18:46 40.31227 -107.59146 10939 ft 155 kts 229°
2026-05-06 18:46 40.30480 -107.60170 11031 ft 154 kts 229°
2026-05-06 18:47 40.29738 -107.61187 11124 ft 155 kts 230°
2026-05-06 18:47 40.28995 -107.62203 11225 ft 157 kts 229°
2026-05-06 18:47 40.28250 -107.63222 11316 ft 154 kts 230°
2026-05-06 18:47 40.27511 -107.64237 11412 ft 153 kts 229°
2026-05-06 18:48 40.26776 -107.65242 11503 ft 153 kts 230°
2026-05-06 18:48 40.26043 -107.66244 11605 ft 152 kts 229°
2026-05-06 18:48 40.25311 -107.67244 11704 ft 152 kts 230°
2026-05-06 18:48 40.24612 -107.68200 11801 ft 152 kts 230°
2026-05-06 18:49 40.23876 -107.69210 11906 ft 154 kts 229°
2026-05-06 18:49 40.23135 -107.70221 12006 ft 154 kts 230°
2026-05-06 18:49 40.22406 -107.71215 12105 ft 152 kts 229°
2026-05-06 18:49 40.21673 -107.72216 12202 ft 153 kts 230°
2026-05-06 18:50 40.20939 -107.73215 12308 ft 152 kts 229°
2026-05-06 18:50 40.20202 -107.74220 12400 ft 153 kts 230°